EW9339 Weather Reports


time (UTC)temp
C
wind
direction
speed
KPH
gust
KPH
rain 1hr
cm
rain 24hr
cm
rain mn
cm
humidity
%
barometer
mb
20260503184521 13 15 9.7 0.0 0.00 0.00 0.23 82 1011.1
20260503183102 13 348 12.9 0.0 0.00 0.00 0.23 83 1011.1
20260503181534 13 321 16.1 0.0 0.00 0.00 0.23 83 1011.1
20260503180018 13 327 19.3 0.0 0.00 0.00 0.23 83 1011.1
20260503174524 14 333 14.5 0.0 0.00 0.00 0.23 82 1011.0
20260503173006 14 340 16.1 0.0 0.00 0.00 0.23 81 1010.9
20260503171614 14 317 17.7 0.0 0.00 0.00 0.23 81 1010.8
20260503100104 13 24 8.0 0.0 0.00 0.00 0.23 92 1011.0
20260503090115 12 13 4.8 0.0 0.00 0.00 0.23 93 1010.9
20260503081542 -17 0.0 0.0 0.00 0.00 0.23 1011.0
20260503071607 -17 0.0 0.0 0.00 0.00 0.23 1010.8
20260503060108 -17 0.0 0.0 0.00 0.00 0.23 1010.3
20260503054522 -17 0.0 0.0 0.00 0.00 0.23 1010.2
20260503053101 -17 0.0 0.0 0.00 0.00 0.23 1010.2
20260503051554 -17 0.0 0.0 0.00 0.00 0.23 1010.0
20260503050046 -17 0.0 0.0 0.00 0.00 0.23 1010.0
20260503044543 -17 0.0 0.0 0.00 0.00 0.23 1010.0
20260503043035 -17 0.0 0.0 0.00 0.00 0.23 1010.1
20260503041552 12 309 3.2 0.0 0.00 0.00 0.23 93 1010.2
20260503040056 13 38 1.6 0.0 0.00 0.00 0.23 93 1010.1
20260503034512 13 93 0.0 0.0 0.00 0.00 0.23 93 1010.2
20260503033026 13 178 3.2 0.0 0.00 0.00 0.23 93 1010.4
20260503031504 13 102 1.6 0.0 0.00 0.00 0.23 93 1010.3
20260503030014 13 115 3.2 0.0 0.00 0.00 0.23 93 1010.3
20260503024502 12 93 3.2 0.0 0.00 0.00 0.23 93 1010.4
20260503023041 12 59 1.6 0.0 0.00 0.00 0.23 93 1010.5
20260503021545 13 215 1.6 0.0 0.00 0.00 0.23 93 1010.5
20260503020043 13 9 3.2 0.0 0.00 0.00 0.23 93 1010.6
20260503014542 13 30 3.2 0.0 0.00 0.00 0.23 93 1010.8
20260503013030 13 17 3.2 0.0 0.00 0.00 0.18 92 1011.0
20260503011507 13 34 1.6 0.0 0.00 0.00 0.18 92 1011.1
20260503010039 13 298 1.6 0.0 0.00 0.00 0.15 92 1011.2
20260503004547 13 93 3.2 0.0 0.00 0.00 0.13 92 1011.3
20260503003039 12 9 3.2 0.0 0.00 0.00 0.13 92 1011.3
20260503001554 12 51 1.6 0.0 0.00 0.00 0.13 92 1011.4
20260503000042 13 61 1.6 0.0 0.00 0.00 0.13 92 1011.6
20260502234516 13 26 3.2 0.0 0.00 0.00 0.13 92 1011.6
20260502233014 13 44 3.2 0.0 0.00 0.00 0.13 92 1011.8
20260502231546 13 22 3.2 0.0 0.00 0.00 0.13 92 1011.7
20260502230051 -17 0.0 0.0 0.00 0.00 0.00 1011.8
20260502224527 -17 0.0 0.0 0.00 0.00 0.00 1011.9
20260502223055 -17 0.0 0.0 0.00 0.00 0.00 1011.8
20260502221521 -17 0.0 0.0 0.00 0.00 0.00 1011.9
20260502220007 -17 0.0 0.0 0.00 0.00 0.86 1011.9
20260502214610 -17 0.0 0.0 0.00 0.00 0.86 1012.0
20260502213039 -17 0.0 0.0 0.00 0.00 0.86 1012.0
20260502211510 -17 0.0 0.0 0.00 0.00 0.86 1012.0
20260502210104 -17 0.0 0.0 0.00 0.00 0.86 1011.9
20260502204523 -17 0.0 0.0 0.00 0.00 0.86 1011.9
20260502203054 -17 0.0 0.0 0.00 0.00 0.86 1011.9
20260502201502 -17 0.0 0.0 0.00 0.00 0.86 1011.7
20260502200130 14 236 4.8 0.0 0.00 0.00 0.86 92 1011.6
20260502194510 14 269 3.2 0.0 0.00 0.00 0.86 92 1011.6
20260502193050 14 9 3.2 0.0 0.00 0.00 0.86 92 1011.4
20260502191504 13 19 3.2 0.0 0.00 0.00 0.86 92 1011.5
20260502190014 13 309 3.2 0.0 0.00 0.00 0.86 92 1011.4